Home   Weather   36°10'N, 95°55'W   Past weeks
Flag for USA

Past Weather in 36°10'N, 95°55'W, USA — Yesterday and Last 2 Weeks

Now
71 °F

Passing clouds.


Feels Like: 64 °F
Forecast: 83 / 72 °F
Wind: 3 mph from East

Location: Tulsa International Airport

Current Time: Aug 24, 2019 at 2:05:20 am

Latest Report: Aug 24, 2019 at 12:53 am


Visibility: 10 mi

Pressure: 29.96 "Hg

Humidity: 100%

Dew Point: 71 °F

Location of 36°10'N, 95°55'WLocation

Past Weather in 36°10'N, 95°55'W — Graph

°F

36°10'N, 95°55'W Temperature Yesterday

Maximum temperature yesterday: 79 °F (at 5:35 pm)
Minimum temperature yesterday: 70 °F (at 12:23 am)
Average temperature yesterday: 73 °F

High & Low Weather Summary for the Past Weeks

 TemperatureHumidityPressure
High101 °F (Aug 20, 4:53 pm)100% (Aug 9, 3:20 am)30.05 "Hg (Aug 9, 3:20 am)
Low70 °F (Aug 15, 2:53 am)19% (Aug 22, 6:53 am)29.70 "Hg (Aug 17, 6:53 pm)
Average83 °F74%29.90 "Hg
* Reported Aug 8 11:53 pm — Aug 23 11:53 pm, 36°10'N, 95°55'W. Weather by CustomWeather, © 2019

Note: Actual official high and low records may vary slightly from our data, if they occured in-between our weather recording intervals... More about our weather records

Advertising

36°10'N, 95°55'W Weather History for the Previous 24 Hours

Scroll right to see more
 ConditionsComfort  
Time TempWeatherWind HumidityBarometerVisibility
11:53 pm
Fri, Aug 23
73 °FPassing clouds.No wind94%29.96 "Hg10 mi
10:53 pm72 °FPassing clouds.5 mph97%29.97 "Hg10 mi
9:53 pm75 °FPassing clouds.3 mph90%29.96 "Hg10 mi
8:53 pm73 °FPassing clouds.5 mph94%29.94 "Hg10 mi
7:53 pm76 °FPartly sunny.5 mph88%29.94 "Hg10 mi
6:53 pm79 °FBroken clouds.6 mph77%29.92 "Hg10 mi
5:53 pm78 °FBroken clouds.8 mph79%29.92 "Hg10 mi
5:35 pm79 °FPartly sunny.8 mph77%29.95 "Hg10 mi
4:53 pm78 °FPartly sunny.7 mph79%29.93 "Hg10 mi
3:53 pm77 °FPartly sunny.10 mph82%29.94 "Hg10 mi
3:27 pm76 °FOvercast.9 mph85%29.97 "Hg10 mi
2:53 pm74 °FOvercast.7 mph91%29.96 "Hg10 mi
1:53 pm74 °FMostly cloudy.9 mph94%29.97 "Hg10 mi
1:16 pm73 °FLight rain. Cloudy.3 mph94%29.99 "Hg10 mi
12:53 pm72 °FLight rain. Low clouds.6 mph97%29.98 "Hg10 mi
12:41 pm72 °FLight rain. Fog.8 mph97%30.00 "Hg4 mi
12:20 pm72 °FLight rain. Fog.3 mph97%30.00 "Hg4 mi
12:15 pm72 °FRain. Fog.5 mph93%30.00 "Hg2 mi
11:53 am72 °FRain. Fog.5 mph97%29.99 "Hg5 mi
11:23 am72 °FLight rain. More clouds than sun.5 mph93%30.01 "Hg10 mi
10:53 am72 °FLow clouds.9 mph97%30.00 "Hg10 mi
10:38 am72 °FMostly cloudy.9 mph97%30.01 "Hg10 mi
10:11 am71 °FLight rain. More clouds than sun.9 mph96%30.00 "Hg10 mi
9:53 am71 °FMostly cloudy.9 mph96%29.97 "Hg10 mi
9:26 am71 °FMostly cloudy.12 mph96%29.98 "Hg10 mi
8:53 am71 °FLight rain. Cloudy.13 mph96%29.96 "Hg10 mi
7:53 am71 °FLight rain. Mostly cloudy.9 mph96%29.95 "Hg10 mi
6:53 am71 °FLight rain. Fog.10 mph96%29.94 "Hg5 mi
6:28 am71 °FRain. Fog.6 mph100%29.97 "Hg4 mi
6:00 am72 °FThunderstorms. Overcast.6 mph97%29.95 "Hg7 mi
5:17 am72 °FThundershowers. Fog.6 mph97%29.95 "Hg5 mi
5:09 am72 °FThundershowers. Fog.5 mph97%29.95 "Hg5 mi
4:53 am72 °FHeavy rain. Fog.No wind100%29.91 "Hg3 mi
4:26 am72 °FThundershowers. Fog.10 mph97%29.92 "Hg5 mi
3:53 am72 °FThundershowers. Fog.9 mph97%29.90 "Hg5 mi
3:15 am71 °FStrong thunderstorms. Fog.9 mph100%29.94 "Hg3 mi
Weather by CustomWeather, © 2019

See weather overview